Satellite: SRMSAT Catalog number: 37841 Epoch time: 12186.49110119 Element set: 0180 Inclination: 019.9706 deg RA of node: 258.6152 deg Eccentricity: 0.0012206 Arg of perigee: 019.4821 deg Mean anomaly: 340.6076 deg Mean motion: 14.10147455 rev/day Decay rate: 2.64e-06 rev/day^2 Epoch rev: 03764 Checksum: 272
Satellite: RAX-2 Catalog number: 37853 Epoch time: 12186.96482553 Element set: 0223 Inclination: 101.7117 deg RA of node: 235.2457 deg Eccentricity: 0.0246577 Arg of perigee: 300.2428 deg Mean anomaly: 057.4569 deg Mean motion: 14.80144073 rev/day Decay rate: 2.187e-05 rev/day^2 Epoch rev: 03703 Checksum: 299
Satellite: AUBIESAT Catalog number: 37854 Epoch time: 12186.84733159 Element set: 0222 Inclination: 101.7138 deg RA of node: 235.3477 deg Eccentricity: 0.0246843 Arg of perigee: 299.8176 deg Mean anomaly: 057.8689 deg Mean motion: 14.80538594 rev/day Decay rate: 2.486e-05 rev/day^2 Epoch rev: 03700 Checksum: 340
Satellite: HRBE Catalog number: 37855 Epoch time: 12186.86273953 Element set: 0230 Inclination: 101.7148 deg RA of node: 235.3203 deg Eccentricity: 0.0247558 Arg of perigee: 299.9505 deg Mean anomaly: 057.7309 deg Mean motion: 14.80386981 rev/day Decay rate: 2.179e-05 rev/day^2 Epoch rev: 03700 Checksum: 320
Satellite: RS-39 Catalog number: 38051 Epoch time: 12186.81575648 Element set: 0484 Inclination: 051.6428 deg RA of node: 075.8203 deg Eccentricity: 0.0014712 Arg of perigee: 098.8497 deg Mean anomaly: 305.5395 deg Mean motion: 15.24555370 rev/day Decay rate: 5.698e-05 rev/day^2 Epoch rev: 02466 Checksum: 340
Satellite: E-STAR Catalog number: 38079 Epoch time: 12186.62178177 Element set: 0324 Inclination: 069.4917 deg RA of node: 275.8020 deg Eccentricity: 0.0741209 Arg of perigee: 225.9949 deg Mean anomaly: 127.7757 deg Mean motion: 14.15683396 rev/day Decay rate: 3.4855e-04 rev/day^2 Epoch rev: 02005 Checksum: 338
Satellite: GOLIAT Catalog number: 38085 Epoch time: 12186.34262177 Element set: 0299 Inclination: 069.4970 deg RA of node: 276.7597 deg Eccentricity: 0.0746195 Arg of perigee: 226.6051 deg Mean anomaly: 127.0445 deg Mean motion: 14.14666221 rev/day Decay rate: 3.3210e-04 rev/day^2 Epoch rev: 02000 Checksum: 300
Satellite: HORYU-2 Catalog number: 38340 Epoch time: 12186.25201215 Element set: 0047 Inclination: 098.1748 deg RA of node: 126.0181 deg Eccentricity: 0.0011820 Arg of perigee: 278.5388 deg Mean anomaly: 081.4492 deg Mean motion: 14.70012326 rev/day Decay rate: 9.35e-06 rev/day^2 Epoch rev: 00698 Checksum: 280
/EX